When you browse on this site, cookies collect data to enhance your experience and personalize the content and advertising you see.
Visit our Privacy Policy to learn more. By continuing to use the site, you agree to this use of cookies and data.
  • în România
  • Lista ţărilor
  • Pe 7 zile
  • Temperatura apei
  • Meteo pe hartă
  • Widget-uri
  • user-avatar
    Intrare

    Meteo pe oră la Veszprem

    Astăzi, 5 Iunie, Vineri

    Timp Temperatura Precipitaţii Vânt Presiune Umiditate
    00:00 +17°C° 0 mm 5 m/s 727 mmHg 63%
    01:00 +17°C° 0 mm 4 m/s 727 mmHg 63%
    02:00 +17°C° 0 mm 4 m/s 727 mmHg 65%
    03:00 +15°C° 0 mm 4 m/s 726 mmHg 67%
    04:00 +15°C° 0 mm 4 m/s 726 mmHg 69%
    05:00 +15°C° 0.2 mm 4 m/s 726 mmHg 72%
    06:00 +16°C° 0.2 mm 5 m/s 727 mmHg 75%
    07:00 +17°C° 0 mm 5 m/s 727 mmHg 77%
    08:00 +19°C° 0.5 mm 5 m/s 727 mmHg 79%
    09:00 +19°C° 0.5 mm 5 m/s 727 mmHg 80%
    10:00 +19°C° 0.5 mm 6 m/s 727 mmHg 81%
    11:00 +19°C° 1.6 mm 5 m/s 728 mmHg 84%
    12:00 +17°C° 1.6 mm 5 m/s 728 mmHg 86%
    13:00 +17°C° 1.6 mm 4 m/s 728 mmHg 89%
    14:00 +17°C° 2.3 mm 4 m/s 728 mmHg 91%
    15:00 +16°C° 2.3 mm 3 m/s 728 mmHg 92%
    16:00 +15°C° 2.3 mm 2 m/s 728 mmHg 94%
    17:00 +15°C° 1.1 mm 2 m/s 728 mmHg 94%
    18:00 +15°C° 1.1 mm 1 m/s 729 mmHg 95%
    19:00 +15°C° 1.1 mm 1 m/s 729 mmHg 95%
    20:00 +14°C° 0 mm 1 m/s 730 mmHg 94%
    21:00 +13°C° 0 mm 0 m/s 731 mmHg 93%
    22:00 +13°C° 0 mm 0 m/s 731 mmHg 91%
    23:00 +12°C° 0 mm 0 m/s 732 mmHg 91%

    Mâine, 6 Iunie, Sâmbătă

    Timp Temperatura Precipitaţii Vânt Presiune Umiditate
    00:00 +12°C° 0 mm 0 m/s 732 mmHg 91%
    01:00 +13°C° 0 mm 1 m/s 733 mmHg 91%
    02:00 +13°C° 0 mm 1 m/s 733 mmHg 89%
    03:00 +13°C° 0 mm 1 m/s 733 mmHg 88%
    04:00 +13°C° 0 mm 1 m/s 734 mmHg 87%
    05:00 +14°C° 0 mm 1 m/s 734 mmHg 84%
    06:00 +16°C° 0 mm 2 m/s 734 mmHg 81%
    07:00 +17°C° 0 mm 2 m/s 735 mmHg 78%
    08:00 +19°C° 0 mm 3 m/s 735 mmHg 72%
    09:00 +20°C° 0 mm 3 m/s 735 mmHg 66%
    10:00 +21°C° 0 mm 4 m/s 735 mmHg 59%
    11:00 +22°C° 0 mm 4 m/s 735 mmHg 59%
    12:00 +24°C° 0 mm 3 m/s 734 mmHg 59%
    13:00 +25°C° 0 mm 3 m/s 734 mmHg 59%
    14:00 +24°C° 0.1 mm 2 m/s 734 mmHg 63%
    15:00 +24°C° 0.1 mm 2 m/s 733 mmHg 68%
    16:00 +24°C° 0.1 mm 1 m/s 733 mmHg 72%
    17:00 +23°C° 0.1 mm 1 m/s 732 mmHg 74%
    18:00 +22°C° 0.1 mm 1 m/s 732 mmHg 76%
    19:00 +22°C° 0.1 mm 1 m/s 732 mmHg 78%
    20:00 +21°C° 1.2 mm 1 m/s 732 mmHg 83%
    21:00 +19°C° 1.2 mm 2 m/s 732 mmHg 87%
    22:00 +18°C° 1.2 mm 2 m/s 732 mmHg 91%
    23:00 +17°C° 0.8 mm 2 m/s 732 mmHg 92%

    Poimâine, 7 Iunie, Duminică

    Timp Temperatura Precipitaţii Vânt Presiune Umiditate
    00:00 +18°C° 0.8 mm 1 m/s 732 mmHg 94%
    01:00 +18°C° 0.8 mm 1 m/s 732 mmHg 95%
    02:00 +18°C° 0.1 mm 1 m/s 732 mmHg 95%
    03:00 +16°C° 0.1 mm 1 m/s 732 mmHg 95%
    04:00 +16°C° 0.1 mm 1 m/s 732 mmHg 95%
    05:00 +18°C° 0.3 mm 1 m/s 732 mmHg 93%
    06:00 +19°C° 0.3 mm 1 m/s 732 mmHg 91%
    07:00 +20°C° 0.3 mm 1 m/s 733 mmHg 89%
    08:00 +21°C° 0.7 mm 1 m/s 733 mmHg 85%
    09:00 +22°C° 0.7 mm 1 m/s 733 mmHg 81%
    10:00 +23°C° 0.7 mm 1 m/s 733 mmHg 77%
    11:00 +24°C° 0.2 mm 2 m/s 733 mmHg 71%
    12:00 +25°C° 0.2 mm 2 m/s 733 mmHg 65%
    13:00 +26°C° 0.2 mm 3 m/s 733 mmHg 60%
    14:00 +26°C° 0.1 mm 3 m/s 732 mmHg 60%
    15:00 +26°C° 0.1 mm 3 m/s 732 mmHg 60%
    16:00 +26°C° 0.1 mm 3 m/s 732 mmHg 61%
    17:00 +24°C° 0.8 mm 3 m/s 732 mmHg 68%
    18:00 +22°C° 0.8 mm 3 m/s 732 mmHg 75%
    19:00 +20°C° 0.8 mm 2 m/s 732 mmHg 82%
    20:00 +19°C° 0.2 mm 2 m/s 732 mmHg 84%
    21:00 +18°C° 0.2 mm 2 m/s 733 mmHg 85%
    22:00 +17°C° 0.2 mm 2 m/s 733 mmHg 87%
    23:00 +17°C° 0 mm 2 m/s 733 mmHg 88%

    8 Iunie, Luni

    Timp Temperatura Precipitaţii Vânt Presiune Umiditate
    00:00 +17°C° 0 mm 2 m/s 733 mmHg 90%
    01:00 +16°C° 0 mm 2 m/s 733 mmHg 91%
    02:00 +16°C° 0 mm 2 m/s 733 mmHg 92%
    03:00 +15°C° 0 mm 2 m/s 733 mmHg 93%
    04:00 +15°C° 0 mm 2 m/s 733 mmHg 93%
    05:00 +16°C° 0 mm 2 m/s 733 mmHg 92%
    06:00 +16°C° 0 mm 2 m/s 734 mmHg 90%
    07:00 +17°C° 0 mm 2 m/s 734 mmHg 89%
    08:00 +18°C° 0 mm 2 m/s 735 mmHg 85%
    09:00 +19°C° 0 mm 2 m/s 735 mmHg 82%
    10:00 +20°C° 0 mm 2 m/s 735 mmHg 78%
    11:00 +20°C° 0 mm 2 m/s 735 mmHg 76%
    12:00 +21°C° 0 mm 3 m/s 735 mmHg 73%
    13:00 +22°C° 0 mm 4 m/s 735 mmHg 71%
    14:00 +21°C° 0.4 mm 4 m/s 735 mmHg 73%
    15:00 +21°C° 0.4 mm 4 m/s 735 mmHg 74%
    16:00 +20°C° 0.4 mm 4 m/s 735 mmHg 76%
    17:00 +19°C° 0 mm 4 m/s 735 mmHg 78%
    18:00 +18°C° 0 mm 4 m/s 735 mmHg 80%
    19:00 +16°C° 0 mm 5 m/s 735 mmHg 82%
    20:00 +15°C° 0 mm 4 m/s 735 mmHg 83%
    21:00 +14°C° 0 mm 4 m/s 736 mmHg 84%
    22:00 +14°C° 0 mm 3 m/s 736 mmHg 85%
    23:00 +13°C° 0 mm 3 m/s 736 mmHg 86%

    9 Iunie, Marţi

    Timp Temperatura Precipitaţii Vânt Presiune Umiditate
    00:00 +13°C° 0 mm 3 m/s 736 mmHg 86%
    01:00 +12°C° 0 mm 3 m/s 736 mmHg 87%
    02:00 +12°C° 0 mm 3 m/s 736 mmHg 88%
    03:00 +12°C° 0 mm 3 m/s 736 mmHg 90%
    04:00 +12°C° 0 mm 2 m/s 736 mmHg 91%
    05:00 +13°C° 0 mm 2 m/s 736 mmHg 87%
    06:00 +14°C° 0 mm 2 m/s 736 mmHg 84%
    07:00 +16°C° 0 mm 2 m/s 737 mmHg 80%
    08:00 +17°C° 0 mm 2 m/s 737 mmHg 75%
    09:00 +19°C° 0 mm 2 m/s 737 mmHg 70%
    10:00 +21°C° 0 mm 2 m/s 737 mmHg 66%
    11:00 +21°C° 0 mm 2 m/s 737 mmHg 64%
    12:00 +23°C° 0 mm 2 m/s 737 mmHg 61%
    13:00 +24°C° 0 mm 2 m/s 736 mmHg 59%
    14:00 +24°C° 0 mm 2 m/s 736 mmHg 59%
    15:00 +24°C° 0 mm 2 m/s 736 mmHg 59%
    16:00 +25°C° 0 mm 1 m/s 735 mmHg 60%
    17:00 +23°C° 0 mm 1 m/s 735 mmHg 65%
    18:00 +22°C° 0 mm 1 m/s 735 mmHg 70%
    19:00 +21°C° 0 mm 1 m/s 735 mmHg 75%
    20:00 +20°C° 0 mm 1 m/s 736 mmHg 78%
    21:00 +19°C° 0 mm 1 m/s 736 mmHg 80%
    22:00 +18°C° 0 mm 1 m/s 736 mmHg 82%
    23:00 +18°C° 0 mm 1 m/s 736 mmHg 85%

    10 Iunie, Miercuri

    Timp Temperatura Precipitaţii Vânt Presiune Umiditate
    00:00 +16°C° 0 mm 1 m/s 736 mmHg 87%
    01:00 +16°C° 0 mm 1 m/s 736 mmHg 90%
    02:00 +15°C° 0 mm 1 m/s 736 mmHg 92%
    03:00 +15°C° 0 mm 2 m/s 736 mmHg 94%
    04:00 +15°C° 0 mm 2 m/s 736 mmHg 96%
    05:00 +16°C° 0.2 mm 2 m/s 736 mmHg 93%
    06:00 +17°C° 0.2 mm 2 m/s 736 mmHg 91%
    07:00 +18°C° 0.2 mm 2 m/s 736 mmHg 88%
    08:00 +20°C° 0.2 mm 2 m/s 736 mmHg 84%
    09:00 +21°C° 0.2 mm 2 m/s 737 mmHg 80%
    10:00 +22°C° 0.2 mm 3 m/s 737 mmHg 76%
    11:00 +23°C° 1.5 mm 2 m/s 736 mmHg 77%
    12:00 +23°C° 1.5 mm 2 m/s 736 mmHg 78%
    13:00 +23°C° 1.5 mm 2 m/s 736 mmHg 79%
    14:00 +23°C° 0.5 mm 2 m/s 735 mmHg 77%
    15:00 +23°C° 0.5 mm 2 m/s 735 mmHg 76%
    16:00 +23°C° 0.5 mm 2 m/s 735 mmHg 75%
    17:00 +21°C° 0.2 mm 2 m/s 735 mmHg 79%
    18:00 +20°C° 0.2 mm 2 m/s 735 mmHg 82%
    19:00 +20°C° 0.2 mm 1 m/s 735 mmHg 85%
    20:00 +20°C° 0 mm 1 m/s 735 mmHg 86%
    21:00 +19°C° 0 mm 1 m/s 735 mmHg 86%
    22:00 +18°C° 0 mm 1 m/s 736 mmHg 87%
    23:00 +18°C° 0.2 mm 1 m/s 736 mmHg 89%
    Arată mai mult